{"data":{"norad_id":67288,"intl_designator":"2025-313AS","name":"2025-313AS","alt_names":[],"object_type":"PAYLOAD","status":"ACTIVE","operator":null,"country":"TBD","launch_date":"2025-12-28","launch_site_code":"VOSTO","launch_vehicle":null,"mission":null,"orbit_class":"UNKNOWN","rcs_meters":null,"size_class":null,"mass_kg":null,"dimensions":null,"purposes":[],"wikipedia_slug":null,"has_3d_model":false,"image_url":null,"decayed_at":null,"tle_current":{"epoch":"2026-05-25T03:22:28.972704Z","epoch_age_seconds":62935,"freshness":"FRESH","line1":"1 67288U 25313AS  26145.14061311  .00004902  00000+0  21180-3 0  9999","line2":"2 67288  97.3927 220.2609 0013003  74.3784 285.8887 15.22871720 22455","mean_motion":15.2287172,"eccentricity":0.0013003,"inclination_deg":97.3927,"raan_deg":220.2609,"arg_perigee_deg":74.3784,"mean_anomaly_deg":285.8887,"bstar":0.0002118,"rev_number":2245,"period_min":94.558194304114,"perigee_km":488.24371138433,"apogee_km":506.12367037303,"semimajor_km":6875.3206908787,"source":"CELESTRAK","updated_at":"2026-05-25T13:38:06.855461Z"}}}